Year,Month,Day,Hour,Minute,Value (Times are PST for insolation in W/m^2)
2008,03,28,00,00,0.00
2008,03,28,00,01,0.00
2008,03,28,00,02,0.00
2008,03,28,00,03,0.00
2008,03,28,00,04,0.00
2008,03,28,00,05,0.00
2008,03,28,00,06,0.00
2008,03,28,00,07,0.00
2008,03,28,00,08,0.00
2008,03,28,00,09,0.00
2008,03,28,00,10,0.00
2008,03,28,00,11,0.00
2008,03,28,00,12,0.00
2008,03,28,00,13,0.00
2008,03,28,00,14,0.00
2008,03,28,00,15,0.00
2008,03,28,00,16,0.00
2008,03,28,00,17,0.00
2008,03,28,00,18,0.00
2008,03,28,00,19,0.00
2008,03,28,00,20,0.00
2008,03,28,00,21,0.00
2008,03,28,00,22,0.00
2008,03,28,00,23,0.00
2008,03,28,00,24,0.00
2008,03,28,00,25,0.00
2008,03,28,00,26,0.00
2008,03,28,00,27,0.00
2008,03,28,00,28,0.00
2008,03,28,00,29,0.00
2008,03,28,00,30,0.00
2008,03,28,00,31,0.00
2008,03,28,00,32,0.00
2008,03,28,00,33,0.00
2008,03,28,00,34,0.00
2008,03,28,00,35,0.00
2008,03,28,00,36,0.00
2008,03,28,00,37,0.00
2008,03,28,00,38,0.00
2008,03,28,00,39,0.00
2008,03,28,00,40,0.00
2008,03,28,00,41,0.00
2008,03,28,00,42,0.00
2008,03,28,00,43,0.00
2008,03,28,00,44,0.00
2008,03,28,00,45,0.00
2008,03,28,00,46,0.00
2008,03,28,00,47,0.00
2008,03,28,00,48,0.00
2008,03,28,00,49,0.00
2008,03,28,00,50,0.00
2008,03,28,00,51,0.00
2008,03,28,00,52,0.00
2008,03,28,00,53,0.00
2008,03,28,00,54,0.00
2008,03,28,00,55,0.00
2008,03,28,00,56,0.00
2008,03,28,00,57,0.00
2008,03,28,00,58,0.00
2008,03,28,00,59,0.00
2008,03,28,01,00,0.00
2008,03,28,01,01,0.00
2008,03,28,01,02,0.00
2008,03,28,01,03,0.00
2008,03,28,01,04,0.00
2008,03,28,01,05,0.00
2008,03,28,01,06,0.00
2008,03,28,01,07,0.00
2008,03,28,01,08,0.00
2008,03,28,01,09,0.00
2008,03,28,01,10,0.00
2008,03,28,01,11,0.00
2008,03,28,01,12,0.00
2008,03,28,01,13,0.00
2008,03,28,01,14,0.00
2008,03,28,01,15,0.00
2008,03,28,01,16,0.00
2008,03,28,01,17,0.00
2008,03,28,01,18,0.00
2008,03,28,01,19,0.00
2008,03,28,01,20,0.00
2008,03,28,01,21,0.00
2008,03,28,01,22,0.00
2008,03,28,01,23,0.00
2008,03,28,01,24,0.00
2008,03,28,01,25,0.00
2008,03,28,01,26,0.00
2008,03,28,01,27,0.00
2008,03,28,01,28,0.00
2008,03,28,01,29,0.00
2008,03,28,01,30,0.00
2008,03,28,01,31,0.00
2008,03,28,01,32,0.00
2008,03,28,01,33,0.00
2008,03,28,01,34,0.00
2008,03,28,01,35,0.00
2008,03,28,01,36,0.00
2008,03,28,01,37,0.00
2008,03,28,01,38,0.00
2008,03,28,01,39,0.00
2008,03,28,01,40,0.00
2008,03,28,01,41,0.00
2008,03,28,01,42,0.00
2008,03,28,01,43,0.00
2008,03,28,01,44,0.00
2008,03,28,01,45,0.00
2008,03,28,01,46,0.00
2008,03,28,01,47,0.00
2008,03,28,01,48,0.00
2008,03,28,01,49,0.00
2008,03,28,01,50,0.00
2008,03,28,01,51,0.00
2008,03,28,01,52,0.00
2008,03,28,01,53,0.00
2008,03,28,01,54,0.00
2008,03,28,01,55,0.00
2008,03,28,01,56,0.00
2008,03,28,01,57,0.00
2008,03,28,01,58,0.00
2008,03,28,01,59,0.00
2008,03,28,02,00,0.00
2008,03,28,02,01,0.00
2008,03,28,02,02,0.00
2008,03,28,02,03,0.00
2008,03,28,02,04,0.00
2008,03,28,02,05,0.00
2008,03,28,02,06,0.00
2008,03,28,02,07,0.00
2008,03,28,02,08,0.00
2008,03,28,02,09,0.00
2008,03,28,02,10,0.00
2008,03,28,02,11,0.00
2008,03,28,02,12,0.00
2008,03,28,02,13,0.00
2008,03,28,02,14,0.00
2008,03,28,02,15,0.00
2008,03,28,02,16,0.00
2008,03,28,02,17,0.00
2008,03,28,02,18,0.00
2008,03,28,02,19,0.00
2008,03,28,02,20,0.00
2008,03,28,02,21,0.00
2008,03,28,02,22,0.00
2008,03,28,02,23,0.00
2008,03,28,02,24,0.00
2008,03,28,02,25,0.00
2008,03,28,02,26,0.00
2008,03,28,02,27,0.00
2008,03,28,02,28,0.00
2008,03,28,02,29,0.00
2008,03,28,02,30,0.00
2008,03,28,02,31,0.00
2008,03,28,02,32,0.00
2008,03,28,02,33,0.00
2008,03,28,02,34,0.00
2008,03,28,02,35,0.00
2008,03,28,02,36,0.00
2008,03,28,02,37,0.00
2008,03,28,02,38,0.00
2008,03,28,02,39,0.00
2008,03,28,02,40,0.00
2008,03,28,02,41,0.00
2008,03,28,02,42,0.00
2008,03,28,02,43,0.00
2008,03,28,02,44,0.00
2008,03,28,02,45,0.00
2008,03,28,02,46,0.00
2008,03,28,02,47,0.00
2008,03,28,02,48,0.00
2008,03,28,02,49,0.00
2008,03,28,02,50,0.00
2008,03,28,02,51,0.00
2008,03,28,02,52,0.00
2008,03,28,02,53,0.00
2008,03,28,02,54,0.00
2008,03,28,02,55,0.00
2008,03,28,02,56,0.00
2008,03,28,02,57,0.00
2008,03,28,02,58,0.00
2008,03,28,02,59,0.00
2008,03,28,03,00,0.00
2008,03,28,03,01,0.00
2008,03,28,03,02,0.00
2008,03,28,03,03,0.00
2008,03,28,03,04,0.00
2008,03,28,03,05,0.00
2008,03,28,03,06,0.00
2008,03,28,03,07,0.00
2008,03,28,03,08,0.00
2008,03,28,03,09,0.00
2008,03,28,03,10,0.00
2008,03,28,03,11,0.00
2008,03,28,03,12,0.00
2008,03,28,03,13,0.00
2008,03,28,03,14,0.00
2008,03,28,03,15,0.00
2008,03,28,03,16,0.00
2008,03,28,03,17,0.00
2008,03,28,03,18,0.00
2008,03,28,03,19,0.00
2008,03,28,03,20,0.00
2008,03,28,03,21,0.00
2008,03,28,03,22,0.00
2008,03,28,03,23,0.00
2008,03,28,03,24,0.00
2008,03,28,03,25,0.00
2008,03,28,03,26,0.00
2008,03,28,03,27,0.00
2008,03,28,03,28,0.00
2008,03,28,03,29,0.00
2008,03,28,03,30,0.00
2008,03,28,03,31,0.00
2008,03,28,03,32,0.00
2008,03,28,03,33,0.00
2008,03,28,03,34,0.00
2008,03,28,03,35,0.00
2008,03,28,03,36,0.00
2008,03,28,03,37,0.00
2008,03,28,03,38,0.00
2008,03,28,03,39,0.00
2008,03,28,03,40,0.00
2008,03,28,03,41,0.00
2008,03,28,03,42,0.00
2008,03,28,03,43,0.00
2008,03,28,03,44,0.00
2008,03,28,03,45,0.00
2008,03,28,03,46,0.00
2008,03,28,03,47,0.00
2008,03,28,03,48,0.00
2008,03,28,03,49,0.00
2008,03,28,03,50,0.00
2008,03,28,03,51,0.00
2008,03,28,03,52,0.00
2008,03,28,03,53,0.00
2008,03,28,03,54,0.00
2008,03,28,03,55,0.00
2008,03,28,03,56,0.00
2008,03,28,03,57,0.00
2008,03,28,03,58,0.00
2008,03,28,03,59,0.00
2008,03,28,04,00,0.00
2008,03,28,04,01,0.00
2008,03,28,04,02,0.00
2008,03,28,04,03,0.00
2008,03,28,04,04,0.00
2008,03,28,04,05,0.00
2008,03,28,04,06,0.00
2008,03,28,04,07,0.00
2008,03,28,04,08,0.00
2008,03,28,04,09,0.00
2008,03,28,04,10,0.00
2008,03,28,04,11,0.00
2008,03,28,04,12,0.00
2008,03,28,04,13,0.00
2008,03,28,04,14,0.00
2008,03,28,04,15,0.00
2008,03,28,04,16,0.00
2008,03,28,04,17,0.00
2008,03,28,04,18,0.00
2008,03,28,04,19,0.00
2008,03,28,04,20,0.00
2008,03,28,04,21,0.00
2008,03,28,04,22,0.00
2008,03,28,04,23,0.00
2008,03,28,04,24,0.00
2008,03,28,04,25,0.00
2008,03,28,04,26,0.00
2008,03,28,04,27,0.00
2008,03,28,04,28,0.00
2008,03,28,04,29,0.00
2008,03,28,04,30,0.00
2008,03,28,04,31,0.00
2008,03,28,04,32,0.00
2008,03,28,04,33,0.00
2008,03,28,04,34,0.00
2008,03,28,04,35,0.00
2008,03,28,04,36,0.00
2008,03,28,04,37,0.00
2008,03,28,04,38,0.00
2008,03,28,04,39,0.00
2008,03,28,04,40,0.00
2008,03,28,04,41,0.00
2008,03,28,04,42,0.00
2008,03,28,04,43,0.00
2008,03,28,04,44,0.00
2008,03,28,04,45,0.00
2008,03,28,04,46,0.00
2008,03,28,04,47,0.00
2008,03,28,04,48,0.00
2008,03,28,04,49,0.00
2008,03,28,04,50,0.00
2008,03,28,04,51,0.00
2008,03,28,04,52,0.00
2008,03,28,04,53,0.00
2008,03,28,04,54,0.00
2008,03,28,04,55,0.00
2008,03,28,04,56,0.00
2008,03,28,04,57,0.00
2008,03,28,04,58,0.00
2008,03,28,04,59,0.00
2008,03,28,05,00,0.00
2008,03,28,05,01,0.00
2008,03,28,05,02,0.00
2008,03,28,05,03,0.00
2008,03,28,05,04,0.00
2008,03,28,05,05,0.00
2008,03,28,05,06,0.00
2008,03,28,05,07,0.00
2008,03,28,05,08,0.00
2008,03,28,05,09,0.00
2008,03,28,05,10,0.00
2008,03,28,05,11,0.00
2008,03,28,05,12,0.00
2008,03,28,05,13,0.00
2008,03,28,05,14,0.00
2008,03,28,05,15,0.00
2008,03,28,05,16,0.00
2008,03,28,05,17,0.00
2008,03,28,05,18,0.00
2008,03,28,05,19,0.00
2008,03,28,05,20,0.00
2008,03,28,05,21,0.00
2008,03,28,05,22,0.00
2008,03,28,05,23,0.00
2008,03,28,05,24,0.00
2008,03,28,05,25,0.00
2008,03,28,05,26,0.00
2008,03,28,05,27,0.00
2008,03,28,05,28,0.00
2008,03,28,05,29,0.00
2008,03,28,05,30,0.00
2008,03,28,05,31,0.00
2008,03,28,05,32,0.00
2008,03,28,05,33,0.00
2008,03,28,05,34,0.00
2008,03,28,05,35,0.00
2008,03,28,05,36,0.00
2008,03,28,05,37,0.00
2008,03,28,05,38,0.00
2008,03,28,05,39,0.00
2008,03,28,05,40,0.00
2008,03,28,05,41,0.00
2008,03,28,05,42,0.00
2008,03,28,05,43,0.00
2008,03,28,05,44,0.00
2008,03,28,05,45,0.00
2008,03,28,05,46,0.00
2008,03,28,05,47,0.00
2008,03,28,05,48,0.00
2008,03,28,05,49,0.00
2008,03,28,05,50,0.00
2008,03,28,05,51,0.00
2008,03,28,05,52,0.00
2008,03,28,05,53,0.00
2008,03,28,05,54,0.00
2008,03,28,05,55,0.00
2008,03,28,05,56,0.00
2008,03,28,05,57,0.00
2008,03,28,05,58,0.00
2008,03,28,05,59,0.00
2008,03,28,06,00,0.00
2008,03,28,06,01,0.00
2008,03,28,06,02,0.00
2008,03,28,06,03,0.00
2008,03,28,06,04,0.00
2008,03,28,06,05,0.00
2008,03,28,06,06,0.00
2008,03,28,06,07,0.00
2008,03,28,06,08,0.00
2008,03,28,06,09,0.00
2008,03,28,06,10,0.00
2008,03,28,06,11,0.00
2008,03,28,06,12,0.00
2008,03,28,06,13,0.00
2008,03,28,06,14,0.00
2008,03,28,06,15,0.00
2008,03,28,06,16,0.00
2008,03,28,06,17,0.00
2008,03,28,06,18,0.00
2008,03,28,06,19,0.00
2008,03,28,06,20,0.00
2008,03,28,06,21,0.00
2008,03,28,06,22,0.00
2008,03,28,06,23,0.00
2008,03,28,06,24,0.00
2008,03,28,06,25,0.00
2008,03,28,06,26,0.00
2008,03,28,06,27,0.00
2008,03,28,06,28,0.00
2008,03,28,06,29,0.00
2008,03,28,06,30,0.00
2008,03,28,06,31,0.00
2008,03,28,06,32,0.00
2008,03,28,06,33,0.00
2008,03,28,06,34,0.00
2008,03,28,06,35,0.00
2008,03,28,06,36,0.00
2008,03,28,06,37,0.00
2008,03,28,06,38,0.00
2008,03,28,06,39,0.00
2008,03,28,06,40,0.00
2008,03,28,06,41,0.00
2008,03,28,06,42,0.00
2008,03,28,06,43,0.00
2008,03,28,06,44,0.00
2008,03,28,06,45,0.00
2008,03,28,06,46,0.00
2008,03,28,06,47,0.00
2008,03,28,06,48,0.00
2008,03,28,06,49,0.00
2008,03,28,06,50,0.00
2008,03,28,06,51,0.00
2008,03,28,06,52,0.00
2008,03,28,06,53,0.00
2008,03,28,06,54,0.00
2008,03,28,06,55,0.00
2008,03,28,06,56,0.00
2008,03,28,06,57,0.00
2008,03,28,06,58,0.00
2008,03,28,06,59,0.00
2008,03,28,07,00,0.00
2008,03,28,07,01,0.00
2008,03,28,07,02,0.00
2008,03,28,07,03,0.00
2008,03,28,07,04,0.00
2008,03,28,07,05,0.00
2008,03,28,07,06,0.00
2008,03,28,07,07,0.00
2008,03,28,07,08,0.00
2008,03,28,07,09,0.00
2008,03,28,07,10,0.00
2008,03,28,07,11,0.00
2008,03,28,07,12,0.00
2008,03,28,07,13,0.00
2008,03,28,07,14,0.00
2008,03,28,07,15,0.00
2008,03,28,07,16,0.00
2008,03,28,07,17,0.00
2008,03,28,07,18,0.00
2008,03,28,07,19,0.00
2008,03,28,07,20,0.00
2008,03,28,07,21,0.00
2008,03,28,07,22,0.00
2008,03,28,07,23,0.00
2008,03,28,07,24,0.00
2008,03,28,07,25,0.00
2008,03,28,07,26,0.00
2008,03,28,07,27,0.00
2008,03,28,07,28,0.00
2008,03,28,07,29,0.00
2008,03,28,07,30,0.00
2008,03,28,07,31,0.00
2008,03,28,07,32,0.00
2008,03,28,07,33,0.00
2008,03,28,07,34,0.00
2008,03,28,07,35,0.00
2008,03,28,07,36,0.00
2008,03,28,07,37,0.00
2008,03,28,07,38,0.00
2008,03,28,07,39,0.00
2008,03,28,07,40,0.00
2008,03,28,07,41,0.00
2008,03,28,07,42,0.00
2008,03,28,07,43,0.00
2008,03,28,07,44,0.00
2008,03,28,07,45,0.00
2008,03,28,07,46,0.00
2008,03,28,07,47,0.00
2008,03,28,07,48,4.50
2008,03,28,07,49,5.00
2008,03,28,07,50,5.00
2008,03,28,07,51,5.00
2008,03,28,07,52,5.00
2008,03,28,07,53,6.80
2008,03,28,07,54,7.00
2008,03,28,07,55,7.00
2008,03,28,07,56,7.00
2008,03,28,07,57,7.00
2008,03,28,07,58,7.00
2008,03,28,07,59,7.00
2008,03,28,08,00,7.00
2008,03,28,08,01,7.00
2008,03,28,08,02,7.00
2008,03,28,08,03,7.00
2008,03,28,08,04,7.00
2008,03,28,08,05,7.00
2008,03,28,08,06,7.00
2008,03,28,08,07,7.00
2008,03,28,08,08,7.00
2008,03,28,08,09,7.00
2008,03,28,08,10,7.00
2008,03,28,08,11,7.00
2008,03,28,08,12,9.00
2008,03,28,08,13,9.00
2008,03,28,08,14,9.90
2008,03,28,08,15,11.00
2008,03,28,08,16,11.80
2008,03,28,08,17,12.00
2008,03,28,08,18,12.00
2008,03,28,08,19,12.80
2008,03,28,08,20,14.00
2008,03,28,08,21,15.20
2008,03,28,08,22,16.00
2008,03,28,08,23,18.10
2008,03,28,08,24,19.40
2008,03,28,08,25,21.00
2008,03,28,08,26,22.10
2008,03,28,08,27,23.00
2008,03,28,08,28,23.00
2008,03,28,08,29,22.90
2008,03,28,08,30,21.00
2008,03,28,08,31,21.70
2008,03,28,08,32,24.50
2008,03,28,08,33,26.00
2008,03,28,08,34,26.00
2008,03,28,08,35,25.70
2008,03,28,08,36,22.50
2008,03,28,08,37,21.80
2008,03,28,08,38,23.00
2008,03,28,08,39,24.60
2008,03,28,08,40,25.00
2008,03,28,08,41,24.80
2008,03,28,08,42,23.60
2008,03,28,08,43,25.00
2008,03,28,08,44,25.50
2008,03,28,08,45,26.00
2008,03,28,08,46,27.90
2008,03,28,08,47,30.40
2008,03,28,08,48,33.70
2008,03,28,08,49,36.90
2008,03,28,08,50,41.80
2008,03,28,08,51,49.80
2008,03,28,08,52,49.00
2008,03,28,08,53,46.80
2008,03,28,08,54,44.20
2008,03,28,08,55,37.60
2008,03,28,08,56,33.80
2008,03,28,08,57,30.50
2008,03,28,08,58,28.00
2008,03,28,08,59,26.00
2008,03,28,09,00,26.00
2008,03,28,09,01,27.10
2008,03,28,09,02,28.00
2008,03,28,09,03,28.00
2008,03,28,09,04,31.90
2008,03,28,09,05,30.00
2008,03,28,09,06,29.30
2008,03,28,09,07,28.00
2008,03,28,09,08,29.40
2008,03,28,09,09,30.00
2008,03,28,09,10,32.00
2008,03,28,09,11,32.20
2008,03,28,09,12,33.70
2008,03,28,09,13,37.20
2008,03,28,09,14,39.70
2008,03,28,09,15,41.50
2008,03,28,09,16,40.20
2008,03,28,09,17,39.80
2008,03,28,09,18,39.40
2008,03,28,09,19,43.00
2008,03,28,09,20,48.30
2008,03,28,09,21,52.20
2008,03,28,09,22,58.60
2008,03,28,09,23,63.60
2008,03,28,09,24,65.80
2008,03,28,09,25,67.00
2008,03,28,09,26,67.00
2008,03,28,09,27,69.80
2008,03,28,09,28,76.60
2008,03,28,09,29,81.00
2008,03,28,09,30,80.10
2008,03,28,09,31,79.00
2008,03,28,09,32,80.40
2008,03,28,09,33,81.00
2008,03,28,09,34,77.00
2008,03,28,09,35,78.20
2008,03,28,09,36,86.60
2008,03,28,09,37,94.30
2008,03,28,09,38,97.10
2008,03,28,09,39,102.00
2008,03,28,09,40,102.00
2008,03,28,09,41,102.00
2008,03,28,09,42,102.00
2008,03,28,09,43,167.30
2008,03,28,09,44,256.80
2008,03,28,09,45,283.20
2008,03,28,09,46,321.40
2008,03,28,09,47,328.10
2008,03,28,09,48,300.40
2008,03,28,09,49,294.10
2008,03,28,09,50,249.20
2008,03,28,09,51,242.10
2008,03,28,09,52,201.80
2008,03,28,09,53,169.60
2008,03,28,09,54,174.40
2008,03,28,09,55,176.10
2008,03,28,09,56,188.40
2008,03,28,09,57,214.80
2008,03,28,09,58,243.80
2008,03,28,09,59,264.40
2008,03,28,10,00,202.80
2008,03,28,10,01,175.90
2008,03,28,10,02,162.70
2008,03,28,10,03,166.70
2008,03,28,10,04,164.40
2008,03,28,10,05,165.40
2008,03,28,10,06,163.20
2008,03,28,10,07,160.00
2008,03,28,10,08,170.40
2008,03,28,10,09,176.50
2008,03,28,10,10,180.80
2008,03,28,10,11,179.40
2008,03,28,10,12,162.60
2008,03,28,10,13,156.30
2008,03,28,10,14,171.00
2008,03,28,10,15,182.70
2008,03,28,10,16,151.10
2008,03,28,10,17,127.90
2008,03,28,10,18,116.10
2008,03,28,10,19,111.90
2008,03,28,10,20,109.00
2008,03,28,10,21,111.70
2008,03,28,10,22,116.30
2008,03,28,10,23,123.50
2008,03,28,10,24,131.70
2008,03,28,10,25,138.40
2008,03,28,10,26,147.50
2008,03,28,10,27,158.10
2008,03,28,10,28,166.60
2008,03,28,10,29,164.20
2008,03,28,10,30,161.40
2008,03,28,10,31,174.40
2008,03,28,10,32,181.40
2008,03,28,10,33,186.60
2008,03,28,10,34,176.10
2008,03,28,10,35,174.30
2008,03,28,10,36,183.20
2008,03,28,10,37,192.20
2008,03,28,10,38,204.30
2008,03,28,10,39,211.20
2008,03,28,10,40,221.70
2008,03,28,10,41,229.50
2008,03,28,10,42,235.10
2008,03,28,10,43,236.80
2008,03,28,10,44,237.20
2008,03,28,10,45,240.20
2008,03,28,10,46,244.80
2008,03,28,10,47,244.20
2008,03,28,10,48,243.80
2008,03,28,10,49,244.00
2008,03,28,10,50,243.00
2008,03,28,10,51,243.00
2008,03,28,10,52,243.00
2008,03,28,10,53,241.80
2008,03,28,10,54,241.00
2008,03,28,10,55,241.00
2008,03,28,10,56,241.00
2008,03,28,10,57,241.70
2008,03,28,10,58,241.00
2008,03,28,10,59,237.70
2008,03,28,11,00,237.00
2008,03,28,11,01,233.70
2008,03,28,11,02,224.60
2008,03,28,11,03,223.70
2008,03,28,11,04,227.50
2008,03,28,11,05,232.70
2008,03,28,11,06,236.50
2008,03,28,11,07,243.00
2008,03,28,11,08,248.60
2008,03,28,11,09,251.80
2008,03,28,11,10,255.10
2008,03,28,11,11,257.00
2008,03,28,11,12,257.90
2008,03,28,11,13,258.00
2008,03,28,11,14,258.00
2008,03,28,11,15,258.00
2008,03,28,11,16,257.40
2008,03,28,11,17,255.60
2008,03,28,11,18,253.40
2008,03,28,11,19,245.40
2008,03,28,11,20,239.90
2008,03,28,11,21,235.70
2008,03,28,11,22,234.00
2008,03,28,11,23,234.00
2008,03,28,11,24,244.60
2008,03,28,11,25,249.80
2008,03,28,11,26,249.40
2008,03,28,11,27,250.20
2008,03,28,11,28,255.90
2008,03,28,11,29,259.40
2008,03,28,11,30,261.90
2008,03,28,11,31,264.00
2008,03,28,11,32,264.00
2008,03,28,11,33,263.10
2008,03,28,11,34,260.80
2008,03,28,11,35,260.00
2008,03,28,11,36,258.30
2008,03,28,11,37,256.80
2008,03,28,11,38,254.40
2008,03,28,11,39,252.10
2008,03,28,11,40,250.40
2008,03,28,11,41,248.60
2008,03,28,11,42,246.00
2008,03,28,11,43,246.00
2008,03,28,11,44,245.30
2008,03,28,11,45,245.10
2008,03,28,11,46,246.00
2008,03,28,11,47,246.00
2008,03,28,11,48,246.00
2008,03,28,11,49,245.60
2008,03,28,11,50,244.00
2008,03,28,11,51,243.50
2008,03,28,11,52,243.00
2008,03,28,11,53,243.00
2008,03,28,11,54,241.20
2008,03,28,11,55,241.70
2008,03,28,11,56,244.70
2008,03,28,11,57,247.10
2008,03,28,11,58,250.10
2008,03,28,11,59,252.60
2008,03,28,12,00,257.10
2008,03,28,12,01,258.00
2008,03,28,12,02,258.80
2008,03,28,12,03,260.00
2008,03,28,12,04,263.80
2008,03,28,12,05,268.20
2008,03,28,12,06,270.80
2008,03,28,12,07,267.60
2008,03,28,12,08,263.10
2008,03,28,12,09,264.90
2008,03,28,12,10,273.30
2008,03,28,12,11,280.70
2008,03,28,12,12,284.30
2008,03,28,12,13,280.40
2008,03,28,12,14,279.00
2008,03,28,12,15,278.40
2008,03,28,12,16,273.40
2008,03,28,12,17,269.50
2008,03,28,12,18,273.60
2008,03,28,12,19,271.30
2008,03,28,12,20,273.90
2008,03,28,12,21,280.50
2008,03,28,12,22,289.30
2008,03,28,12,23,298.50
2008,03,28,12,24,302.00
2008,03,28,12,25,302.00
2008,03,28,12,26,302.00
2008,03,28,12,27,302.00
2008,03,28,12,28,301.20
2008,03,28,12,29,296.70
2008,03,28,12,30,290.90
2008,03,28,12,31,284.90
2008,03,28,12,32,280.10
2008,03,28,12,33,276.90
2008,03,28,12,34,276.00
2008,03,28,12,35,274.10
2008,03,28,12,36,271.80
2008,03,28,12,37,271.00
2008,03,28,12,38,273.80
2008,03,28,12,39,280.90
2008,03,28,12,40,288.20
2008,03,28,12,41,295.20
2008,03,28,12,42,299.40
2008,03,28,12,43,301.40
2008,03,28,12,44,305.30
2008,03,28,12,45,310.30
2008,03,28,12,46,312.90
2008,03,28,12,47,311.10
2008,03,28,12,48,311.90
2008,03,28,12,49,317.90
2008,03,28,12,50,327.50
2008,03,28,12,51,335.10
2008,03,28,12,52,338.80
2008,03,28,12,53,346.70
2008,03,28,12,54,355.30
2008,03,28,12,55,359.50
2008,03,28,12,56,359.50
2008,03,28,12,57,359.20
2008,03,28,12,58,355.20
2008,03,28,12,59,352.00
2008,03,28,13,00,352.00
2008,03,28,13,01,352.00
2008,03,28,13,02,358.50
2008,03,28,13,03,368.10
2008,03,28,13,04,376.60
2008,03,28,13,05,383.90
2008,03,28,13,06,388.00
2008,03,28,13,07,389.00
2008,03,28,13,08,390.00
2008,03,28,13,09,388.40
2008,03,28,13,10,386.90
2008,03,28,13,11,382.50
2008,03,28,13,12,379.30
2008,03,28,13,13,379.40
2008,03,28,13,14,382.40
2008,03,28,13,15,384.70
2008,03,28,13,16,379.60
2008,03,28,13,17,373.80
2008,03,28,13,18,373.40
2008,03,28,13,19,375.10
2008,03,28,13,20,383.90
2008,03,28,13,21,387.00
2008,03,28,13,22,382.90
2008,03,28,13,23,380.30
2008,03,28,13,24,377.20
2008,03,28,13,25,377.00
2008,03,28,13,26,379.50
2008,03,28,13,27,380.00
2008,03,28,13,28,377.60
2008,03,28,13,29,372.40
2008,03,28,13,30,371.00
2008,03,28,13,31,372.80
2008,03,28,13,32,376.80
2008,03,28,13,33,384.60
2008,03,28,13,34,390.70
2008,03,28,13,35,394.60
2008,03,28,13,36,396.00
2008,03,28,13,37,393.80
2008,03,28,13,38,390.40
2008,03,28,13,39,385.30
2008,03,28,13,40,382.80
2008,03,28,13,41,379.80
2008,03,28,13,42,372.70
2008,03,28,13,43,369.00
2008,03,28,13,44,369.00
2008,03,28,13,45,333.40
2008,03,28,13,46,322.10
2008,03,28,13,47,318.60
2008,03,28,13,48,323.10
2008,03,28,13,49,327.00
2008,03,28,13,50,334.50
2008,03,28,13,51,339.20
2008,03,28,13,52,343.00
2008,03,28,13,53,343.00
2008,03,28,13,54,344.60
2008,03,28,13,55,346.00
2008,03,28,13,56,346.00
2008,03,28,13,57,343.30
2008,03,28,13,58,338.10
2008,03,28,13,59,316.90
2008,03,28,14,00,309.00
2008,03,28,14,01,309.00
2008,03,28,14,02,309.00
2008,03,28,14,03,318.40
2008,03,28,14,04,322.00
2008,03,28,14,05,321.20
2008,03,28,14,06,318.00
2008,03,28,14,07,312.20
2008,03,28,14,08,308.20
2008,03,28,14,09,303.90
2008,03,28,14,10,301.00
2008,03,28,14,11,301.00
2008,03,28,14,12,301.00
2008,03,28,14,13,301.00
2008,03,28,14,14,301.90
2008,03,28,14,15,302.00
2008,03,28,14,16,302.00
2008,03,28,14,17,301.60
2008,03,28,14,18,301.00
2008,03,28,14,19,301.00
2008,03,28,14,20,299.30
2008,03,28,14,21,296.60
2008,03,28,14,22,295.00
2008,03,28,14,23,294.50
2008,03,28,14,24,294.00
2008,03,28,14,25,292.40
2008,03,28,14,26,290.30
2008,03,28,14,27,289.70
2008,03,28,14,28,287.60
2008,03,28,14,29,285.90
2008,03,28,14,30,282.60
2008,03,28,14,31,279.40
2008,03,28,14,32,275.80
2008,03,28,14,33,271.30
2008,03,28,14,34,267.10
2008,03,28,14,35,260.80
2008,03,28,14,36,255.00
2008,03,28,14,37,246.80
2008,03,28,14,38,241.10
2008,03,28,14,39,232.40
2008,03,28,14,40,224.90
2008,03,28,14,41,217.30
2008,03,28,14,42,210.50
2008,03,28,14,43,205.20
2008,03,28,14,44,202.10
2008,03,28,14,45,202.00
2008,03,28,14,46,203.60
2008,03,28,14,47,206.50
2008,03,28,14,48,207.00
2008,03,28,14,49,208.80
2008,03,28,14,50,209.00
2008,03,28,14,51,208.50
2008,03,28,14,52,207.00
2008,03,28,14,53,206.40
2008,03,28,14,54,206.60
2008,03,28,14,55,206.10
2008,03,28,14,56,205.80
2008,03,28,14,57,203.00
2008,03,28,14,58,198.60
2008,03,28,14,59,195.70
2008,03,28,15,00,193.60
2008,03,28,15,01,190.20
2008,03,28,15,02,183.80
2008,03,28,15,03,176.20
2008,03,28,15,04,168.90
2008,03,28,15,05,161.90
2008,03,28,15,06,154.20
2008,03,28,15,07,148.60
2008,03,28,15,08,143.50
2008,03,28,15,09,140.40
2008,03,28,15,10,139.00
2008,03,28,15,11,137.70
2008,03,28,15,12,134.80
2008,03,28,15,13,127.90
2008,03,28,15,14,126.30
2008,03,28,15,15,123.00
2008,03,28,15,16,124.10
2008,03,28,15,17,126.40
2008,03,28,15,18,129.20
2008,03,28,15,19,134.20
2008,03,28,15,20,137.40
2008,03,28,15,21,140.20
2008,03,28,15,22,144.40
2008,03,28,15,23,147.30
2008,03,28,15,24,148.90
2008,03,28,15,25,149.00
2008,03,28,15,26,149.50
2008,03,28,15,27,151.00
2008,03,28,15,28,154.50
2008,03,28,15,29,161.60
2008,03,28,15,30,166.60
2008,03,28,15,31,172.70
2008,03,28,15,32,180.10
2008,03,28,15,33,187.00
2008,03,28,15,34,191.80
2008,03,28,15,35,196.10
2008,03,28,15,36,198.90
2008,03,28,15,37,202.50
2008,03,28,15,38,206.20
2008,03,28,15,39,207.90
2008,03,28,15,40,211.60
2008,03,28,15,41,215.10
2008,03,28,15,42,221.00
2008,03,28,15,43,221.90
2008,03,28,15,44,227.90
2008,03,28,15,45,230.00
2008,03,28,15,46,229.40
2008,03,28,15,47,229.00
2008,03,28,15,48,239.00
2008,03,28,15,49,237.40
2008,03,28,15,50,230.90
2008,03,28,15,51,226.30
2008,03,28,15,52,221.00
2008,03,28,15,53,215.00
2008,03,28,15,54,213.00
2008,03,28,15,55,215.00
2008,03,28,15,56,214.20
2008,03,28,15,57,215.70
2008,03,28,15,58,213.10
2008,03,28,15,59,214.00
2008,03,28,16,00,200.40
2008,03,28,16,01,197.40
2008,03,28,16,02,202.10
2008,03,28,16,03,201.70
2008,03,28,16,04,174.20
2008,03,28,16,05,155.80
2008,03,28,16,06,157.10
2008,03,28,16,07,140.20
2008,03,28,16,08,132.10
2008,03,28,16,09,124.90
2008,03,28,16,10,126.80
2008,03,28,16,11,131.80
2008,03,28,16,12,139.60
2008,03,28,16,13,147.50
2008,03,28,16,14,158.00
2008,03,28,16,15,158.00
2008,03,28,16,16,175.60
2008,03,28,16,17,182.60
2008,03,28,16,18,188.20
2008,03,28,16,19,186.90
2008,03,28,16,20,175.80
2008,03,28,16,21,171.00
2008,03,28,16,22,166.40
2008,03,28,16,23,160.80
2008,03,28,16,24,153.90
2008,03,28,16,25,149.70
2008,03,28,16,26,154.30
2008,03,28,16,27,163.40
2008,03,28,16,28,171.20
2008,03,28,16,29,172.40
2008,03,28,16,30,181.90
2008,03,28,16,31,193.80
2008,03,28,16,32,198.10
2008,03,28,16,33,199.00
2008,03,28,16,34,199.00
2008,03,28,16,35,206.00
2008,03,28,16,36,205.60
2008,03,28,16,37,205.80
2008,03,28,16,38,214.00
2008,03,28,16,39,222.70
2008,03,28,16,40,225.00
2008,03,28,16,41,228.80
2008,03,28,16,42,229.80
2008,03,28,16,43,240.80
2008,03,28,16,44,240.30
2008,03,28,16,45,239.80
2008,03,28,16,46,235.80
2008,03,28,16,47,232.00
2008,03,28,16,48,232.00
2008,03,28,16,49,224.30
2008,03,28,16,50,211.00
2008,03,28,16,51,211.70
2008,03,28,16,52,201.30
2008,03,28,16,53,207.20
2008,03,28,16,54,208.50
2008,03,28,16,55,205.80
2008,03,28,16,56,205.20
2008,03,28,16,57,209.80
2008,03,28,16,58,213.40
2008,03,28,16,59,204.00
2008,03,28,17,00,199.00
2008,03,28,17,01,184.10
2008,03,28,17,02,180.60
2008,03,28,17,03,174.20
2008,03,28,17,04,167.80
2008,03,28,17,05,169.50
2008,03,28,17,06,171.70
2008,03,28,17,07,170.20
2008,03,28,17,08,169.00
2008,03,28,17,09,169.00
2008,03,28,17,10,171.00
2008,03,28,17,11,171.70
2008,03,28,17,12,176.00
2008,03,28,17,13,174.00
2008,03,28,17,14,172.00
2008,03,28,17,15,173.50
2008,03,28,17,16,174.10
2008,03,28,17,17,176.50
2008,03,28,17,18,177.90
2008,03,28,17,19,174.90
2008,03,28,17,20,172.00